#timestamp,LO_Frequency,Hit,StdDev 
1594821615.7,286046988.0,Y
1594821635.5,286046993.4,P
1594821655.4,286046994.3,P
1594821675.2,286046992.2,P
1594821695.0,286046993.3,Y
1594821696.0,286046993.3,P
1594821715.8,286047002.5,P
1594821735.6,286047002.2,N
1594821755.5,286046999.8,N
1594821775.3,286046999.9,N
1594821795.1,286047002.7,N
1594821815.9,286047000.6,N
1594821835.7,286047002.1,N
1594821855.6,286047003.2,N
1594821875.4,286047005.7,N
1594821895.2,286047003.5,N
1594821915.1,286047003.4,N
1594821916.0,286047003.4,N
1594821935.8,286047005.9,N
1594821955.6,286047004.9,N
1594821975.5,286047005.5,N
1594821995.3,286047010.7,N
1594822015.2,286047011.8,N
1594822035.9,286047009.4,N
1594822055.7,286047010.8,N
1594822075.6,286047008.0,N
1594822095.4,286047010.6,N
1594822115.2,286047008.2,N
1594822135.1,286047010.3,N
1594822136.0,286047010.3,N
1594822155.8,286047012.3,N
1594822175.6,286047012.4,N
1594822195.5,286047013.0,N
1594822215.3,286047015.3,N
1594822235.2,286047015.1,N
1594822255.9,286047011.0,N
1594822275.7,286047011.2,N
1594822295.6,286047011.9,N
1594822315.4,286047013.2,N
1594822335.2,286047011.5,N
1594822355.1,286047011.8,N
1594822356.0,286047011.8,N
1594822375.8,286047011.5,Y
1594822395.7,286047003.8,P
1594822415.5,286047002.9,N
1594822435.3,286047007.0,N
1594822455.2,286047006.2,N
1594822475.0,286047005.6,N
1594822475.9,286047005.6,N
1594822495.8,286047004.3,N
1594822515.6,286047003.6,N
1594822535.4,286047006.4,Y
1594822555.3,286047003.1,P
1594822575.1,286047005.6,P
1594822595.8,286047005.1,P
1594822615.7,286047005.9,Y
1594822635.5,286047001.1,P
1594822655.4,286046999.8,N
1594822675.2,286047002.0,N
1594822695.0,286047003.7,N
1594822695.9,286047003.7,N
1594822715.8,286047000.8,N
1594822735.6,286046999.4,N
1594822755.4,286046995.6,N
1594822775.3,286046992.1,Y
1594822795.1,286046994.1,P
1594822815.9,286046995.5,N
1594822835.7,286046993.4,N
1594822855.5,286046991.9,N
1594822875.4,286046990.7,N
1594822895.2,286046991.3,N
1594822915.1,286046989.7,Y
1594822916.0,286046989.7,P
1594822935.8,286046993.6,N
1594822955.6,286046997.5,N
1594822975.5,286046996.2,N
1594822995.3,286046994.9,N
1594823015.2,286046995.7,N
1594823035.9,286046995.1,N
1594823055.7,286046998.0,N
1594823075.6,286046995.3,N
1594823095.4,286046993.3,Y
1594823115.3,286046999.8,P
1594823135.1,286047000.2,N
1594823136.0,286047000.2,N
1594823155.8,286047000.2,N
1594823175.7,286046999.3,N
1594823195.5,286046996.5,N
1594823215.3,286046994.9,N
1594823235.2,286046997.5,N
1594823255.0,286046995.2,N
1594823255.9,286046995.2,N
1594823275.8,286046993.4,N
1594823295.6,286046994.8,N
1594823315.4,286046992.3,Y
1594823335.3,286046995.4,P
1594823355.1,286046996.0,P
1594823375.8,286046996.4,P
1594823395.7,286046996.0,Y
1594823415.5,286046999.5,P
1594823435.4,286046998.7,N
1594823485.2,286047001.0,E
1594823495.2,286046998.8,N
1594823515.9,286046999.6,P
1594823535.7,286046998.2,P
1594823555.6,286046999.0,N
1594823575.4,286046997.2,Y
1594823595.2,286046998.0,P
1594823615.1,286046995.0,P
1594823616.0,286046995.0,P
1594823635.8,286046993.8,Y
1594823655.7,286046997.7,P
1594823675.5,286046995.2,P
1594823695.3,286046994.9,P
1594823715.2,286046997.9,N
1594823735.0,286046994.9,Y
1594823735.9,286046994.9,P
1594823755.8,286047001.0,N
1594823775.6,286047000.7,N
1594823795.4,286047001.1,N
1594823815.3,286047001.2,N
1594823835.1,286046999.6,N
1594823855.8,286046997.0,N
1594823875.7,286046997.6,N
1594823895.5,286046995.4,N
1594823915.3,286046998.0,N
1594823935.2,286046997.4,N
1594823955.0,286046995.4,N
1594823955.9,286046995.4,N
1594823975.8,286046995.2,N
1594823995.6,286046995.6,N
1594824015.4,286046995.4,N
1594824035.3,286046995.0,N
1594824055.1,286046995.5,N
1594824075.9,286046997.0,N
1594824095.7,286046994.9,N
1594824115.5,286046994.6,N
1594824135.4,286046992.0,Y
1594824155.2,286046994.1,P
1594824175.0,286046992.2,P
1594824176.0,286046992.2,P
1594824195.8,286046995.8,N
1594824215.6,286047005.5,N
1594824235.5,286047003.3,N
1594824255.3,286047001.6,N
1594824275.1,286047002.4,N
1594824295.9,286046999.8,N
1594824315.7,286047002.1,N
1594824335.6,286047002.6,N
1594824355.4,286047002.8,N
1594824375.2,286047000.7,N
1594824395.1,286046998.3,N
1594824396.0,286046998.3,N
1594824415.8,286046998.2,N
1594824435.6,286046999.5,N
1594824455.5,286046996.9,N
1594824475.3,286046997.2,N
1594824495.1,286046996.8,N
1594824515.9,286046997.2,N
1594824535.7,286047001.2,N
1594824555.6,286047000.8,N
1594824575.4,286046998.6,N
1594824595.2,286046997.3,N
1594824615.1,286046996.5,N
1594824616.0,286046996.5,N
1594824635.8,286046998.3,N
1594824655.6,286046999.2,N
1594824675.5,286047002.6,N
1594824695.3,286047004.8,N
1594824715.2,286047003.4,N
1594824735.9,286047003.8,N
1594824755.7,286047005.8,N
1594824775.6,286047004.7,N
1594824795.4,286047007.4,N
1594824815.2,286047009.0,N
1594824835.1,286047009.5,N
1594824836.0,286047009.5,N
1594824855.8,286047012.8,Y
1594824875.7,286047013.3,P
1594824895.5,286047013.0,N
1594824915.3,286047015.2,N
1594824935.2,286047016.3,N
1594824955.0,286047016.2,N
1594824955.9,286047016.2,Y
1594824975.7,286047000.1,P
1594824995.6,286047002.0,N
1594825015.4,286047001.8,N
1594825035.3,286047000.7,N
1594825055.1,286046999.5,N
1594825056.0,286046999.5,N
1594825075.8,286046993.8,N
1594825095.7,286046997.4,N
1594825115.5,286047000.8,N
1594825135.3,286047005.9,N
1594825155.2,286047008.6,N
1594825175.0,286047010.8,N
1594825175.9,286047010.8,N
1594825195.8,286047008.0,N
